Location: Roc des P�zouls
(43.9667°N, 3.5500°E)
Time: 07:43:42
(UTC+00:00)

H-2A R/B - Pass Details

Date: 14 November 2019
Orbit: 530 x 653 km, 98.3° (Epoch: 14 December)

Event Time Altitude Azimuth Distance (km) Brightness Sun altitude
Rises 04:42:23 0° 5° (N) 2,979 6.1 -21.0°
Reaches altitude 10° 04:44:43 10° 358° (N) 2,069 5.2 -20.5°
Enters shadow 04:47:23 29° 331° (NNW) 1,205 3.7 -20.1°
